Starlink 31656

operational
NORAD ID: 60286 Int'l Des: 2024-132 Owner: SPXS Country: US Constellation: starlink
LEOCIRCULAR

Über Starlink 31656

Beschreibung wird geladen...

Live-Position

3D-Globus wird geladen...

Nächste Überflüge

Höhenverlauf

Altitude vs Time

uPlot chart will show altitude changes over time

Zweizeiliger Elementsatz

1 60286U 24132J 25352.63450238 .00000477 00000-0 28233-4 0 9992
2 60286 53.1609 68.7062 0001194 73.7378 286.3754 15.30196687 79150
Epoch: 18. Dez. 2025 • Age: 25 hours

Aktueller Status

Höhe 480.6 km
Geschwindigkeit 7.63 km/s
Subsatellitenpunkt 51.62°N, 155.69°E
Startdatum 28. Juli 2024
Alter 1.3 years
Typ internet

Technische Details

Klassifizierung Payload
Masse 730.00 kg
Trockenmasse 700.00 kg
Gesamtmasse 730.00 kg
Länge 0.30 m
Durchmesser 4.10 m
Spannweite 29.00 m
Form Box + pan
Hersteller SPXS
Bus-Typ Starlink V2M
Phasenstatus In Orbit
Besitzer/Staat SPXS/US

Große Konstellationen

Loading constellations...